EW8153 Weather Reports


Display with metric or nautical units.
time (UTC)temp
F
wind
direction
speed
MPH
gust
MPH
rain 1hr
in
rain 24hr
in
rain mn
in
humidity
%
barometer
mb
20260507214541 48 51 3.0 8.0 0.00 0.00 0.00 88 1016.9
20260507214024 48 131 3.0 8.0 0.00 0.00 0.00 88 1017.0
20260507213524 48 118 3.0 8.0 0.00 0.00 0.00 88 1017.0
20260507213040 48 117 3.0 8.0 0.00 0.00 0.00 88 1017.0
20260507212523 48 111 3.0 8.0 0.00 0.00 0.00 88 1017.0
20260507212023 48 74 2.0 9.0 0.00 0.00 0.00 88 1017.0
20260507211538 48 111 3.0 9.0 0.00 0.00 0.00 87 1016.9
20260507211023 49 80 2.0 8.0 0.00 0.00 0.00 87 1016.9
20260507210523 49 57 3.0 8.0 0.00 0.00 0.00 87 1017.0
20260507210038 49 68 3.0 8.0 0.00 0.00 0.00 87 1017.0
20260507205526 49 87 2.0 9.0 0.00 0.00 0.00 87 1017.0
20260507205024 49 126 3.0 9.0 0.00 0.00 0.00 86 1017.0
20260507204544 49 134 2.0 8.0 0.00 0.00 0.00 86 1017.0
20260507204026 49 106 2.0 8.0 0.00 0.00 0.00 86 1016.9
20260507203523 49 111 3.0 8.0 0.00 0.00 0.00 86 1016.9
20260507203036 49 86 2.0 8.0 0.00 0.00 0.00 85 1016.7
20260507202523 49 98 3.0 9.0 0.00 0.00 0.00 85 1016.7
20260507202023 50 76 3.0 9.0 0.00 0.00 0.00 85 1016.6
20260507201542 50 120 3.0 8.0 0.00 0.00 0.00 85 1016.6
20260507201024 50 123 3.0 8.0 0.00 0.00 0.00 85 1016.5
20260507200527 50 68 3.0 8.0 0.00 0.00 0.00 84 1016.4
20260507200038 50 142 2.0 8.0 0.00 0.00 0.00 84 1016.2
20260507195523 50 83 2.0 7.0 0.00 0.00 0.00 83 1016.2
20260507195023 50 108 2.0 10.0 0.00 0.00 0.00 83 1016.1
20260507194537 50 55 3.0 10.0 0.00 0.00 0.00 82 1016.1
20260507194023 50 16 2.0 7.0 0.00 0.00 0.00 82 1016.0
20260507193523 51 51 2.0 7.0 0.00 0.00 0.00 81 1015.9
20260507193047 51 132 2.0 7.0 0.00 0.00 0.00 81 1015.9
20260507192523 51 93 2.0 6.0 0.00 0.00 0.00 81 1015.9
20260507192023 51 130 2.0 6.0 0.00 0.00 0.00 80 1015.9
20260507191550 51 120 1.0 7.0 0.00 0.00 0.00 80 1015.9
20260507191022 52 239 3.0 7.0 0.00 0.00 0.00 79 1015.9
20260507190524 52 100 2.0 6.0 0.00 0.00 0.00 79 1015.9
20260507190040 52 128 2.0 6.0 0.00 0.00 0.00 78 1015.9
20260507185523 52 171 2.0 6.0 0.00 0.00 0.00 78 1015.9
20260507185026 52 205 2.0 7.0 0.00 0.00 0.00 77 1015.8
20260507184538 52 115 2.0 7.0 0.00 0.00 0.00 77 1015.8
20260507184027 53 139 2.0 7.0 0.00 0.00 0.00 76 1015.6
20260507183523 53 109 2.0 6.0 0.00 0.00 0.00 75 1015.7
20260507183039 53 104 2.0 6.0 0.00 0.00 0.00 74 1015.8
20260507182523 53 178 2.0 7.0 0.00 0.00 0.00 72 1015.7
20260507182023 53 111 2.0 8.0 0.00 0.00 0.00 71 1015.7
20260507181537 53 187 2.0 8.0 0.00 0.00 0.00 69 1015.7
20260507181026 54 196 2.0 7.0 0.00 0.00 0.00 69 1015.7
20260507180526 54 142 2.0 7.0 0.00 0.00 0.00 68 1015.8
20260507180037 54 139 2.0 7.0 0.00 0.00 0.00 70 1015.7
20260507175523 54 316 1.0 9.0 0.00 0.00 0.00 69 1015.8
20260507175025 54 255 2.0 9.0 0.00 0.00 0.00 68 1015.8
20260507174541 54 135 2.0 8.0 0.00 0.00 0.00 67 1015.9
20260507174022 54 121 2.0 8.0 0.00 0.00 0.00 66 1015.9
20260507173524 55 93 1.0 5.0 0.00 0.00 0.00 68 1015.8
20260507173040 55 0 1.0 5.0 0.00 0.00 0.00 69 1015.9
20260507172524 55 93 1.0 5.0 0.00 0.00 0.00 71 1015.8
20260507172023 55 158 1.0 7.0 0.00 0.00 0.00 71 1015.9
20260507171539 55 149 1.0 7.0 0.00 0.00 0.00 71 1015.9
20260507171023 55 137 1.0 8.0 0.00 0.00 0.00 72 1016.0
20260507170522 55 124 3.0 9.0 0.00 0.00 0.00 73 1016.0
20260507170044 55 219 2.0 9.0 0.00 0.00 0.00 73 1016.0
20260507165523 56 187 2.0 7.0 0.00 0.00 0.00 72 1015.9
20260507165023 56 149 2.0 6.0 0.00 0.00 0.00 71 1015.9
20260507164536 57 137 3.0 8.0 0.00 0.00 0.00 70 1015.9
20260507164023 57 212 2.0 8.0 0.00 0.00 0.00 69 1015.8
20260507163523 58 132 1.0 6.0 0.00 0.00 0.00 69 1015.9
20260507163043 58 138 1.0 6.0 0.00 0.00 0.00 70 1015.9
20260507162524 58 137 2.0 8.0 0.00 0.00 0.00 70 1015.9
20260507162023 57 221 2.0 8.0 0.00 0.00 0.00 71 1015.9
20260507161541 57 120 2.0 7.0 0.00 0.00 0.00 71 1015.9
20260507161023 57 169 2.0 7.0 0.00 0.00 0.00 71 1016.0
20260507160526 57 291 2.0 7.0 0.00 0.00 0.00 71 1016.0
20260507160040 57 187 2.0 10.0 0.00 0.00 0.00 70 1016.0
20260507155526 57 115 2.0 10.0 0.00 0.00 0.00 70 1016.1
20260507155022 58 196 3.0 8.0 0.00 0.00 0.00 68 1016.2
20260507154538 58 137 2.0 7.0 0.00 0.00 0.00 69 1016.1
20260507154023 58 121 2.0 9.0 0.00 0.00 0.00 70 1016.2
20260507153523 58 139 1.0 9.0 0.00 0.00 0.00 69 1016.2
20260507153046 58 120 3.0 8.0 0.00 0.00 0.00 69 1016.3
20260507152525 58 124 2.0 8.0 0.00 0.00 0.00 69 1016.2
20260507152025 58 0 2.0 8.0 0.00 0.00 0.00 69 1016.2
20260507151535 58 265 2.0 7.0 0.00 0.00 0.00 69 1016.2
20260507151025 58 196 2.0 7.0 0.00 0.00 0.00 69 1016.2
20260507150523 58 120 2.0 10.0 0.00 0.00 0.00 69 1016.2
20260507150040 58 144 2.0 13.0 0.00 0.00 0.00 68 1016.3
20260507145523 58 178 4.0 13.0 0.00 0.00 0.00 67 1016.3
20260507145022 59 146 3.0 13.0 0.00 0.00 0.00 67 1016.2
20260507144539 58 191 3.0 9.0 0.00 0.00 0.00 68 1016.1
20260507144026 58 292 2.0 9.0 0.00 0.00 0.00 68 1016.2
20260507143523 58 254 3.0 9.0 0.00 0.00 0.00 67 1016.2
20260507143039 59 128 2.0 11.0 0.00 0.00 0.00 68 1016.2
20260507142524 59 184 3.0 11.0 0.00 0.00 0.00 67 1016.2
20260507142023 59 212 3.0 11.0 0.00 0.00 0.00 68 1016.2
20260507141537 59 88 4.0 14.0 0.00 0.00 0.00 67 1016.3
20260507141023 59 190 3.0 14.0 0.00 0.00 0.00 69 1016.3
20260507140523 58 137 3.0 10.0 0.00 0.00 0.00 67 1016.3
20260507140043 58 137 2.0 10.0 0.00 0.00 0.00 67 1016.4
20260507135527 59 167 4.0 10.0 0.00 0.00 0.00 67 1016.3
20260507135023 59 144 4.0 10.0 0.00 0.00 0.00 66 1016.4
20260507134544 59 205 2.0 10.0 0.00 0.00 0.00 69 1016.4
20260507134024 59 298 3.0 10.0 0.00 0.00 0.00 70 1016.4
20260507133523 59 138 4.0 10.0 0.00 0.00 0.00 68 1016.4
20260507133041 59 141 3.0 10.0 0.00 0.00 0.00 69 1016.3
20260507132522 59 150 2.0 9.0 0.00 0.00 0.00 69 1016.3
20260507132022 59 239 3.0 9.0 0.00 0.00 0.00 68 1016.3
20260507131553 59 105 3.0 10.0 0.00 0.00 0.00 69 1016.3
20260507131024 59 108 2.0 10.0 0.00 0.00 0.00 67 1016.3
20260507130522 60 144 3.0 10.0 0.00 0.00 0.00 65 1016.3
20260507130043 59 193 3.0 9.0 0.00 0.00 0.00 67 1016.3
20260507125523 59 186 2.0 8.0 0.00 0.00 0.00 68 1016.4
20260507125023 59 120 3.0 8.0 0.00 0.00 0.00 67 1016.3
20260507124537 59 178 2.0 8.0 0.00 0.00 0.00 69 1016.2
20260507124025 59 169 3.0 9.0 0.00 0.00 0.00 69 1016.2
20260507123523 59 298 3.0 10.0 0.00 0.00 0.00 68 1016.2
20260507123037 58 80 3.0 14.0 0.00 0.00 0.00 69 1016.2
20260507122523 58 196 3.0 14.0 0.00 0.00 0.00 68 1016.3
20260507122024 58 142 3.0 10.0 0.00 0.00 0.00 69 1016.4
20260507121543 58 144 2.0 10.0 0.00 0.00 0.00 69 1016.4
20260507121025 58 212 3.0 10.0 0.00 0.00 0.00 69 1016.4
20260507120524 58 146 3.0 10.0 0.00 0.00 0.00 69 1016.4
20260507120043 58 103 4.0 10.0 0.00 0.00 0.00 69 1016.5
20260507115525 58 221 2.0 9.0 0.00 0.00 0.00 69 1016.5
20260507115024 58 140 3.0 10.0 0.00 0.00 0.00 69 1016.4
20260507114543 58 98 3.0 10.0 0.00 0.00 0.00 69 1016.5
20260507114024 58 153 4.0 10.0 0.00 0.00 0.00 69 1016.4
20260507113525 59 225 3.0 9.0 0.00 0.00 0.00 69 1016.5
20260507113038 58 164 3.0 10.0 0.00 0.00 0.00 70 1016.4
20260507112524 58 187 2.0 10.0 0.00 0.00 0.00 71 1016.3
20260507112024 57 107 3.0 9.0 0.00 0.00 0.00 71 1016.4
20260507111537 57 51 3.0 8.0 0.00 0.00 0.00 71 1016.5
20260507111024 57 178 3.0 8.0 0.00 0.00 0.00 71 1016.6
20260507110524 57 164 3.0 8.0 0.00 0.00 0.00 72 1016.7
20260507110036 56 34 2.0 8.0 0.00 0.00 0.00 72 1016.6
20260507105524 56 137 3.0 9.0 0.00 0.00 0.00 73 1016.7
20260507105024 55 265 3.0 9.0 0.00 0.00 0.00 73 1016.6
20260507104536 55 190 2.0 8.0 0.00 0.00 0.00 73 1016.7
20260507104025 55 137 2.0 7.0 0.00 0.00 0.00 73 1016.7
20260507103524 55 158 3.0 7.0 0.00 0.00 0.00 72 1016.7
20260507103043 55 164 2.0 7.0 0.00 0.00 0.00 72 1016.7
20260507102524 55 113 2.0 8.0 0.00 0.00 0.00 72 1016.7
20260507102024 55 296 2.0 8.0 0.00 0.00 0.00 72 1016.8
20260507101540 55 120 2.0 9.0 0.00 0.00 0.00 72 1016.8
20260507101024 56 201 3.0 9.0 0.00 0.00 0.00 71 1016.8
20260507100524 56 142 2.0 8.0 0.00 0.00 0.00 72 1016.9
20260507100041 56 255 3.0 8.0 0.00 0.00 0.00 71 1016.8
20260507095527 56 120 3.0 8.0 0.00 0.00 0.00 70 1016.8
20260507095024 56 121 2.0 8.0 0.00 0.00 0.00 70 1016.8
20260507094539 57 137 2.0 8.0 0.00 0.00 0.00 70 1016.8
20260507094025 57 153 2.0 8.0 0.00 0.00 0.00 70 1016.8
20260507093524 57 162 2.0 8.0 0.00 0.00 0.00 70 1016.7
20260507093037 56 111 1.0 5.0 0.00 0.00 0.00 72 1016.7
20260507092524 56 0 1.0 5.0 0.00 0.00 0.00 71 1016.6
20260507092024 56 113 1.0 4.0 0.00 0.00 0.00 71 1016.6
20260507091536 55 9 1.0 5.0 0.00 0.00 0.00 68 1016.6
20260507091024 55 0 1.0 5.0 0.00 0.00 0.00 67 1016.6
20260507090524 55 265 1.0 6.0 0.00 0.00 0.00 67 1016.7
20260507090040 55 265 1.0 6.0 0.00 0.00 0.00 67 1016.6
20260507085524 56 120 2.0 8.0 0.00 0.00 0.00 68 1016.6
20260507085023 56 86 2.0 8.0 0.00 0.00 0.00 70 1016.6
20260507084539 55 309 1.0 6.0 0.00 0.00 0.00 71 1016.7
20260507084022 55 63 1.0 4.0 0.00 0.00 0.00 73 1016.7
20260507083522 55 178 1.0 5.0 0.00 0.00 0.00 73 1016.7
20260507083036 54 66 1.0 6.0 0.00 0.00 0.00 74 1016.7
20260507082523 54 93 2.0 7.0 0.00 0.00 0.00 73 1016.7
20260507082022 54 61 2.0 9.0 0.00 0.00 0.00 74 1016.7
20260507081544 54 63 2.0 9.0 0.00 0.00 0.00 75 1016.6
20260507081023 54 162 2.0 7.0 0.00 0.00 0.00 75 1016.5
20260507080525 53 90 2.0 7.0 0.00 0.00 0.00 76 1016.5
20260507080044 53 51 1.0 8.0 0.00 0.00 0.00 78 1016.6
20260507075526 52 71 2.0 8.0 0.00 0.00 0.00 78 1016.5
20260507075022 52 72 2.0 8.0 0.00 0.00 0.00 79 1016.5
20260507074557 52 28 2.0 8.0 0.00 0.00 0.00 80 1016.5
20260507074026 51 90 2.0 8.0 0.00 0.00 0.00 81 1016.5
20260507073522 51 51 2.0 6.0 0.00 0.00 0.00 81 1016.5
20260507073036 51 88 1.0 8.0 0.00 0.00 0.00 81 1016.4
20260507072526 51 32 2.0 8.0 0.00 0.00 0.00 81 1016.4
20260507072023 51 113 2.0 7.0 0.00 0.00 0.00 82 1016.4
20260507071536 51 121 2.0 7.0 0.00 0.00 0.00 82 1016.3
20260507071023 51 42 2.0 8.0 0.00 0.00 0.00 82 1016.3
20260507070528 51 82 2.0 8.0 0.00 0.00 0.00 82 1016.2
20260507070043 51 83 2.0 8.0 0.00 0.00 0.00 83 1016.2
20260507065525 50 61 2.0 8.0 0.00 0.00 0.00 83 1016.3
20260507065022 50 126 2.0 9.0 0.00 0.00 0.00 83 1016.3
20260507064540 50 109 3.0 9.0 0.00 0.00 0.00 85 1016.3
20260507064026 49 83 2.0 8.0 0.00 0.00 0.00 86 1016.2
20260507063527 48 212 2.0 8.0 0.00 0.00 0.00 87 1016.2
20260507063039 48 72 2.0 9.0 0.00 0.00 0.00 88 1016.1
20260507062526 47 51 1.0 9.0 0.00 0.00 0.00 88 1016.1
20260507062026 47 93 2.0 6.0 0.00 0.00 0.00 88 1016.1
20260507061538 47 34 2.0 6.0 0.00 0.00 0.00 88 1016.1
20260507061026 47 55 2.0 6.0 0.00 0.00 0.00 88 1016.0
20260507060526 47 76 1.0 7.0 0.00 0.00 0.00 88 1015.9
20260507060036 47 221 2.0 7.0 0.00 0.00 0.00 88 1016.0
20260507055526 47 80 2.0 7.0 0.00 0.00 0.00 89 1015.8
20260507055027 47 65 2.0 7.0 0.00 0.00 0.00 89 1015.8
20260507054604 47 71 2.0 7.0 0.00 0.00 0.00 89 1015.8
20260507054026 47 80 2.0 6.0 0.00 0.00 0.00 90 1015.7
20260507053530 47 82 1.0 5.0 0.00 0.00 0.00 90 1015.6
20260507053043 46 334 1.0 5.0 0.00 0.00 0.00 90 1015.5
20260507052525 46 22 1.0 5.0 0.00 0.00 0.00 90 1015.4
20260507052023 46 59 1.0 4.0 0.00 0.00 0.00 90 1015.4
20260507051542 46 76 1.0 4.0 0.00 0.00 0.00 89 1015.5
20260507051022 46 55 1.0 4.0 0.00 0.00 0.00 90 1015.4
20260507050526 46 51 1.0 4.0 0.00 0.00 0.00 90 1015.5
20260507050039 46 93 0.0 5.0 0.00 0.00 0.00 90 1015.5
20260507045526 46 0 1.0 5.0 0.00 0.00 0.00 90 1015.4
20260507045025 46 9 1.0 4.0 0.00 0.00 0.00 89 1015.3
20260507044544 46 309 1.0 4.0 0.00 0.00 0.00 89 1015.3
20260507044026 46 34 1.0 4.0 0.00 0.00 0.00 89 1015.3
20260507043526 46 129 1.0 4.0 0.00 0.00 0.00 89 1015.2
20260507043036 46 0 0.0 4.0 0.00 0.00 0.00 89 1015.2
20260507042526 46 65 0.0 4.0 0.00 0.00 0.00 89 1015.2
20260507042026 46 76 1.0 4.0 0.00 0.00 0.00 89 1015.2
20260507041548 46 61 1.0 4.0 0.00 0.00 0.00 89 1015.2
20260507041026 46 0 0.0 4.0 0.00 0.00 0.00 89 1015.2
20260507040523 46 325 0.0 4.0 0.00 0.00 0.00 89 1015.1
20260507040044 46 80 1.0 4.0 0.00 0.00 0.00 90 1015.1
20260507035525 46 26 0.0 3.0 0.00 0.00 0.00 90 1015.2
20260507035027 46 61 0.0 4.0 0.00 0.00 0.00 89 1015.2
20260507034542 46 9 1.0 4.0 0.00 0.00 0.00 89 1015.2
20260507034022 46 51 1.0 3.0 0.00 0.00 0.00 89 1015.2
20260507033522 46 0 0.0 3.0 0.00 0.00 0.00 89 1015.1
20260507033042 46 51 0.0 3.0 0.00 0.00 0.00 88 1015.1
20260507032527 46 0 0.0 3.0 0.00 0.00 0.00 88 1015.1
20260507032026 46 0 0.0 3.0 0.00 0.00 0.00 88 1015.1
20260507031546 46 0 0.0 3.0 0.00 0.00 0.00 88 1015.1
20260507031029 46 76 0.0 3.0 0.00 0.00 0.00 88 1015.1
20260507030526 46 319 0.0 3.0 0.00 0.00 0.00 87 1015.1
20260507030047 46 298 0.0 3.0 0.00 0.00 0.00 87 1015.1
20260507025526 46 55 0.0 3.0 0.00 0.00 0.00 87 1015.1
20260507025026 46 9 0.0 3.0 0.00 0.00 0.00 87 1015.1
20260507024541 46 51 0.0 3.0 0.00 0.00 0.00 87 1015.1
20260507024025 46 65 0.0 3.0 0.00 0.00 0.00 87 1015.1
20260507023526 46 217 1.0 3.0 0.00 0.00 0.00 87 1015.1
20260507023040 46 51 0.0 4.0 0.00 0.00 0.00 88 1015.0
20260507022530 47 51 0.0 4.0 0.00 0.00 0.00 88 1015.0
20260507022027 47 34 0.0 2.0 0.00 0.00 0.00 88 1015.0
20260507021534 47 282 0.0 2.0 0.00 0.00 0.00 88 1015.0
20260507021023 47 0 0.0 2.0 0.00 0.00 0.00 88 1015.0
20260507020524 47 0 0.0 2.0 0.00 0.00 0.00 88 1015.0
20260507020039 47 9 0.0 2.0 0.00 0.00 0.00 88 1015.0
20260507015528 47 44 0.0 2.0 0.00 0.00 0.00 88 1014.9
20260507015024 47 0 0.0 2.0 0.00 0.00 0.00 88 1015.0
20260507014547 47 0 0.0 2.0 0.00 0.00 0.00 88 1014.9
20260507014024 47 22 0.0 2.0 0.00 0.00 0.00 88 1015.0
20260507013524 47 34 0.0 3.0 0.00 0.00 0.00 87 1015.0
20260507013036 47 0 0.0 3.0 0.00 0.00 0.00 88 1014.9
20260507012524 47 265 0.0 2.0 0.00 0.00 0.00 87 1014.9
20260507012026 47 41 0.0 2.0 0.00 0.00 0.00 87 1015.0
20260507011543 47 0 0.0 2.0 0.00 0.00 0.00 87 1015.0
20260507011023 47 309 0.0 2.0 0.00 0.00 0.00 87 1015.0
20260507010524 47 0 0.0 2.0 0.00 0.00 0.00 87 1015.0
20260507010038 47 0 0.0 2.0 0.00 0.00 0.00 86 1015.0
20260507005523 47 0 0.0 2.0 0.00 0.00 0.00 86 1015.0
20260507005023 47 0 0.0 2.0 0.00 0.00 0.00 86 1014.9
20260507004537 47 19 0.0 3.0 0.00 0.00 0.00 86 1014.9
20260507004026 47 34 0.0 3.0 0.00 0.00 0.00 86 1014.9
20260507003525 48 34 0.0 2.0 0.00 0.00 0.00 85 1014.9
20260507003051 48 265 0.0 2.0 0.00 0.00 0.00 85 1014.9
20260507002524 48 0 0.0 2.0 0.00 0.00 0.00 85 1015.0
20260507002025 48 0 0.0 3.0 0.00 0.00 0.00 85 1015.0
20260507001543 48 26 0.0 3.0 0.00 0.00 0.00 85 1015.0
20260507001024 48 0 0.0 3.0 0.00 0.00 0.00 85 1015.0
20260507000524 48 51 0.0 3.0 0.00 0.00 0.00 85 1014.9
20260507000043 48 178 1.0 3.0 0.00 0.00 0.00 85 1015.0
20260506235524 48 0 0.0 3.0 0.00 0.00 0.00 84 1015.0
20260506235023 48 34 0.0 3.0 0.00 0.00 0.00 84 1015.0
20260506234540 48 0 0.0 3.0 0.00 0.00 0.00 84 1015.0
20260506234024 48 31 0.0 4.0 0.00 0.00 0.00 84 1015.0
20260506233525 48 193 1.0 4.0 0.00 0.00 0.00 84 1015.0
20260506233042 48 0 0.0 3.0 0.00 0.00 0.00 83 1014.9
20260506232524 48 102 0.0 2.0 0.00 0.00 0.00 83 1015.0
20260506232024 48 0 0.0 4.0 0.00 0.00 0.00 83 1015.0
20260506231541 48 0 1.0 4.0 0.00 0.00 0.00 83 1015.0
20260506231024 48 51 0.0 2.0 0.00 0.00 0.00 83 1014.9
20260506230525 48 0 0.0 2.0 0.00 0.00 0.00 83 1015.0
20260506230036 48 0 0.0 2.0 0.00 0.00 0.00 83 1015.0
20260506225527 48 0 0.0 2.0 0.00 0.00 0.00 83 1015.0
20260506225024 48 334 0.0 2.0 0.00 0.00 0.00 83 1015.0
20260506224536 48 61 0.0 2.0 0.00 0.00 0.00 83 1015.0
20260506224023 48 0 0.0 2.0 0.00 0.00 0.00 82 1015.1
20260506223523 48 0 0.0 2.0 0.00 0.00 0.00 82 1015.0
20260506223040 48 51 0.0 3.0 0.00 0.00 0.00 82 1015.0
20260506222524 48 0 0.0 3.0 0.00 0.00 0.00 82 1014.9
20260506222023 48 309 0.0 2.0 0.00 0.00 0.00 82 1015.0
20260506221539 48 0 0.0 2.0 0.00 0.00 0.00 82 1014.9
20260506221026 48 34 0.0 2.0 0.00 0.00 0.00 81 1014.9
20260506220524 48 76 0.0 2.0 0.00 0.00 0.00 81 1014.9
20260506220038 48 59 0.0 2.0 0.00 0.00 0.00 81 1014.8
20260506215525 48 22 0.0 2.0 0.00 0.00 0.00 81 1014.9
20260506215028 49 0 0.0 2.0 0.00 0.00 0.00 81 1014.9